Regional Weather Roundup
Issued by NWS Tiyan, Guam

Home | Current Version | Previous Version | Text Only | Print | Product List | Glossary On
Versions: 1 2 3 4 5 6 7 8 9 10 11 12 13 14 15 16 17 18 19 20 21 22 23 24 25 26 27 28 29 30 31 32 33 34 35 36 37 38 39 40 41 42 43 44 45
000
ASGM40 PGUM 270412
RWRGUM
WEATHER ROUNDUP FOR THE MARIANAS
NATIONAL WEATHER SERVICE TIYAN GU
200 PM CHST SAT DEC 27 2014

GUZ001>004-270500-
MARIANA ISLANDS-

CITY           SKY/WX    TMP DP  RH WIND       PRES   REMARKS
GUAM AIRPORT   PTSUNNY   88  73  62 NE17      29.81F HX  96
ANDERSEN AFB   SUNNY     84  73  70 E16       29.82F HX  91
ROTA AIRPORT   MOSUNNY   84  73  70 E17       29.83F HX  91
TINIAN AP      MOSUNNY   84  73  70 E17       29.81F HX  91
SAIPAN AP      MOSUNNY   88  73  62 E18G29    29.82F HX  96

$$




USA.gov is the U.S. government's official web portal to all federal, state and local government web resources and services.